| time (UTC) | temp F | wind direction | speed knots | gust knots | rain 1hr in | rain 24hr in | rain mn in | humidity % | barometer mb |
| 20260507065008 | 54 | 264 | 0.0 | 0.0 | 0.00 | 0.00 | 0.00 | 84 | 1020.8 |
| 20260507064521 | 54 | 264 | 0.0 | 0.0 | 0.00 | 0.00 | 0.00 | 84 | 1020.9 |
| 20260507064007 | 54 | 264 | 0.0 | 0.0 | 0.00 | 0.00 | 0.00 | 85 | 1020.9 |
| 20260507063508 | 54 | 264 | 0.0 | 0.0 | 0.00 | 0.00 | 0.00 | 85 | 1020.9 |
| 20260507063020 | 54 | 264 | 0.0 | 0.0 | 0.00 | 0.00 | 0.00 | 85 | 1020.9 |
| 20260507062505 | 54 | 264 | 0.0 | 0.0 | 0.00 | 0.00 | 0.00 | 84 | 1020.9 |
| 20260507062008 | 54 | 264 | 0.0 | 0.0 | 0.00 | 0.00 | 0.00 | 85 | 1020.9 |
| 20260507061506 | 54 | 264 | 0.0 | 0.0 | 0.00 | 0.00 | 0.00 | 85 | 1020.9 |
| 20260507061006 | 54 | 264 | 0.0 | 0.0 | 0.00 | 0.00 | 0.00 | 85 | 1020.9 |
| 20260507060504 | 54 | 264 | 0.0 | 0.0 | 0.00 | 0.00 | 0.00 | 84 | 1020.9 |
| 20260507060012 | 54 | 264 | 0.0 | 0.0 | 0.00 | 0.00 | 0.00 | 85 | 1020.9 |
| 20260507055506 | 54 | 264 | 0.0 | 0.0 | 0.00 | 0.00 | 0.00 | 86 | 1021.0 |
| 20260507055005 | 54 | 264 | 0.0 | 0.0 | 0.00 | 0.00 | 0.00 | 86 | 1021.0 |
| 20260507054519 | 54 | 264 | 0.0 | 0.0 | 0.00 | 0.00 | 0.00 | 86 | 1021.0 |
| 20260507054007 | 54 | 264 | 0.0 | 0.0 | 0.00 | 0.00 | 0.00 | 86 | 1021.0 |
| 20260507053507 | 54 | 264 | 0.0 | 0.0 | 0.00 | 0.00 | 0.00 | 86 | 1021.0 |
| 20260507053024 | 54 | 264 | 0.0 | 0.0 | 0.00 | 0.00 | 0.00 | 86 | 1021.1 |
| 20260507052506 | 54 | 264 | 0.0 | 0.0 | 0.00 | 0.00 | 0.00 | 86 | 1021.1 |
| 20260507052006 | 54 | 264 | 0.0 | 0.0 | 0.00 | 0.00 | 0.00 | 86 | 1021.1 |
| 20260507051521 | 54 | 264 | 0.0 | 1.7 | 0.00 | 0.00 | 0.00 | 86 | 1021.1 |
| 20260507051010 | 54 | 264 | 0.0 | 1.7 | 0.00 | 0.00 | 0.00 | 86 | 1021.2 |
| 20260507050507 | 54 | 283 | 0.0 | 0.0 | 0.00 | 0.00 | 0.00 | 86 | 1021.2 |
| 20260507050011 | 54 | 283 | 0.0 | 0.0 | 0.00 | 0.00 | 0.00 | 85 | 1021.2 |
| 20260507045506 | 54 | 283 | 0.0 | 0.0 | 0.00 | 0.00 | 0.00 | 86 | 1021.2 |
| 20260507045004 | 54 | 307 | 0.0 | 0.0 | 0.00 | 0.00 | 0.00 | 85 | 1021.2 |
| 20260507044517 | 54 | 307 | 0.0 | 0.0 | 0.00 | 0.00 | 0.00 | 85 | 1021.2 |
| 20260507044009 | 54 | 307 | 0.0 | 0.0 | 0.00 | 0.00 | 0.00 | 85 | 1021.2 |
| 20260507043503 | 54 | 307 | 0.0 | 1.7 | 0.00 | 0.00 | 0.00 | 85 | 1021.2 |
| 20260507043006 | 54 | 307 | 0.0 | 1.7 | 0.00 | 0.00 | 0.00 | 84 | 1021.2 |
| 20260507042503 | 54 | 304 | 0.0 | 0.9 | 0.00 | 0.00 | 0.00 | 84 | 1021.2 |
| 20260507042004 | 54 | 257 | 0.0 | 0.0 | 0.00 | 0.00 | 0.00 | 84 | 1021.3 |
| 20260507041506 | 54 | 257 | 0.0 | 1.7 | 0.00 | 0.00 | 0.00 | 84 | 1021.2 |
| 20260507041004 | 54 | 254 | 0.0 | 1.7 | 0.00 | 0.00 | 0.00 | 84 | 1021.1 |
| 20260507040504 | 55 | 283 | 0.0 | 0.9 | 0.00 | 0.00 | 0.00 | 83 | 1021.2 |
| 20260507040008 | 55 | 283 | 0.0 | 1.7 | 0.00 | 0.00 | 0.00 | 83 | 1021.1 |
| 20260507035504 | 55 | 263 | 0.0 | 1.7 | 0.00 | 0.00 | 0.00 | 83 | 1021.1 |
| 20260507035003 | 55 | 260 | 0.0 | 0.0 | 0.00 | 0.00 | 0.00 | 82 | 1020.9 |
| 20260507034518 | 55 | 260 | 0.0 | 0.0 | 0.00 | 0.00 | 0.00 | 82 | 1020.9 |
| 20260507034007 | 55 | 255 | 0.0 | 0.0 | 0.00 | 0.00 | 0.00 | 82 | 1020.9 |
| 20260507033505 | 55 | 255 | 0.0 | 0.0 | 0.00 | 0.00 | 0.00 | 82 | 1020.8 |
| 20260507033003 | 55 | 255 | 0.0 | 0.9 | 0.00 | 0.00 | 0.00 | 82 | 1020.9 |
| 20260507032502 | 55 | 228 | 0.0 | 1.7 | 0.00 | 0.00 | 0.00 | 82 | 1020.8 |
| 20260507032002 | 55 | 271 | 0.0 | 1.7 | 0.00 | 0.00 | 0.00 | 82 | 1020.8 |
| 20260507031503 | 55 | 241 | 0.0 | 1.7 | 0.00 | 0.00 | 0.00 | 82 | 1020.8 |
| 20260507031003 | 55 | 291 | 0.0 | 1.7 | 0.00 | 0.00 | 0.00 | 81 | 1020.8 |
| 20260507030502 | 55 | 342 | 0.0 | 1.7 | 0.00 | 0.00 | 0.00 | 82 | 1020.8 |
| 20260507030006 | 55 | 342 | 0.0 | 1.7 | 0.00 | 0.00 | 0.00 | 82 | 1020.7 |
| 20260507025502 | 55 | 258 | 0.0 | 1.7 | 0.00 | 0.00 | 0.00 | 81 | 1020.8 |
| 20260507025002 | 55 | 245 | 0.0 | 1.7 | 0.00 | 0.00 | 0.00 | 81 | 1020.9 |
| 20260507024512 | 55 | 323 | 0.0 | 1.7 | 0.00 | 0.00 | 0.00 | 81 | 1020.8 |
| 20260507024008 | 55 | 237 | 0.0 | 3.5 | 0.00 | 0.00 | 0.00 | 81 | 1020.8 |
| 20260507023505 | 55 | 286 | 0.0 | 3.5 | 0.00 | 0.00 | 0.00 | 81 | 1020.8 |
| 20260507023017 | 55 | 279 | 0.0 | 2.6 | 0.00 | 0.00 | 0.00 | 81 | 1020.7 |
| 20260507022506 | 55 | 304 | 0.0 | 3.5 | 0.00 | 0.00 | 0.00 | 80 | 1020.7 |
| 20260507022005 | 55 | 271 | 0.9 | 3.5 | 0.00 | 0.00 | 0.00 | 80 | 1020.6 |
| 20260507021509 | 55 | 210 | 0.0 | 2.6 | 0.00 | 0.00 | 0.00 | 80 | 1020.6 |
| 20260507021002 | 56 | 254 | 0.0 | 2.6 | 0.00 | 0.00 | 0.00 | 79 | 1020.6 |
| 20260507020504 | 56 | 303 | 0.0 | 1.7 | 0.00 | 0.00 | 0.00 | 79 | 1020.6 |
| 20260507020007 | 56 | 332 | 0.0 | 2.6 | 0.00 | 0.00 | 0.00 | 79 | 1020.6 |
| 20260507015502 | 56 | 358 | 0.0 | 3.5 | 0.00 | 0.00 | 0.00 | 79 | 1020.6 |
| 20260507015003 | 56 | 34 | 0.0 | 3.5 | 0.00 | 0.00 | 0.00 | 79 | 1020.5 |
| 20260507014508 | 57 | 231 | 0.0 | 2.6 | 0.00 | 0.00 | 0.00 | 79 | 1020.5 |
| 20260507014002 | 57 | 210 | 0.0 | 2.6 | 0.00 | 0.00 | 0.00 | 78 | 1020.5 |
| 20260507013503 | 57 | 259 | 0.0 | 0.9 | 0.00 | 0.00 | 0.00 | 79 | 1020.5 |
| 20260507013014 | 57 | 207 | 0.0 | 1.7 | 0.00 | 0.00 | 0.00 | 78 | 1020.4 |
| 20260507012508 | 56 | 340 | 0.0 | 1.7 | 0.00 | 0.00 | 0.00 | 78 | 1020.4 |
| 20260507012007 | 57 | 265 | 0.0 | 1.7 | 0.00 | 0.00 | 0.00 | 79 | 1020.5 |
| 20260507011533 | 57 | 235 | 0.0 | 1.7 | 0.00 | 0.00 | 0.00 | 79 | 1020.5 |
| 20260507011010 | 56 | 224 | 0.0 | 2.6 | 0.00 | 0.00 | 0.00 | 79 | 1020.5 |
| 20260507010505 | 56 | 300 | 0.0 | 2.6 | 0.00 | 0.00 | 0.00 | 79 | 1020.6 |
| 20260507010006 | 57 | 233 | 0.0 | 1.7 | 0.00 | 0.00 | 0.00 | 78 | 1020.6 |
| 20260507005504 | 56 | 348 | 0.0 | 2.6 | 0.00 | 0.00 | 0.00 | 78 | 1020.7 |
| 20260507005003 | 56 | 257 | 0.9 | 2.6 | 0.00 | 0.00 | 0.00 | 78 | 1020.6 |
| 20260507004511 | 56 | 270 | 0.9 | 2.6 | 0.00 | 0.00 | 0.00 | 77 | 1020.7 |
| 20260507004003 | 57 | 273 | 0.0 | 2.6 | 0.00 | 0.00 | 0.00 | 77 | 1020.6 |
| 20260507003503 | 57 | 284 | 0.0 | 2.6 | 0.00 | 0.00 | 0.00 | 77 | 1020.7 |
| 20260507003018 | 57 | 256 | 0.0 | 3.5 | 0.00 | 0.00 | 0.00 | 76 | 1020.7 |
| 20260507002503 | 57 | 283 | 0.9 | 3.5 | 0.00 | 0.00 | 0.00 | 75 | 1020.7 |
| 20260507002009 | 57 | 242 | 0.0 | 2.6 | 0.00 | 0.00 | 0.00 | 75 | 1020.6 |
| 20260507001519 | 57 | 273 | 0.0 | 3.5 | 0.00 | 0.00 | 0.00 | 75 | 1020.5 |
| 20260507001008 | 57 | 238 | 0.0 | 3.5 | 0.00 | 0.00 | 0.00 | 75 | 1020.6 |
| 20260507000506 | 57 | 334 | 0.9 | 3.5 | 0.00 | 0.00 | 0.00 | 76 | 1020.6 |
| 20260507000023 | 57 | 1 | 0.9 | 3.5 | 0.00 | 0.00 | 0.00 | 75 | 1020.6 |
| 20260506235508 | 57 | 301 | 0.0 | 3.5 | 0.00 | 0.00 | 0.00 | 75 | 1020.6 |
| 20260506235006 | 58 | 26 | 0.0 | 2.6 | 0.00 | 0.00 | 0.00 | 74 | 1020.6 |
| 20260506234510 | 58 | 181 | 0.0 | 3.5 | 0.00 | 0.00 | 0.00 | 74 | 1020.6 |
| 20260506234002 | 57 | 297 | 0.9 | 3.5 | 0.00 | 0.00 | 0.00 | 74 | 1020.6 |
| 20260506233503 | 57 | 250 | 0.9 | 3.5 | 0.00 | 0.00 | 0.00 | 74 | 1020.6 |
| 20260506233007 | 57 | 348 | 0.9 | 3.5 | 0.00 | 0.00 | 0.00 | 73 | 1020.6 |
| 20260506232503 | 57 | 265 | 1.7 | 5.2 | 0.00 | 0.00 | 0.00 | 73 | 1020.5 |
| 20260506232004 | 58 | 324 | 0.0 | 5.2 | 0.00 | 0.00 | 0.00 | 74 | 1020.5 |
| 20260506231516 | 58 | 341 | 0.0 | 3.5 | 0.00 | 0.00 | 0.00 | 73 | 1020.5 |
| 20260506231009 | 58 | 191 | 0.0 | 3.5 | 0.00 | 0.00 | 0.00 | 73 | 1020.6 |
| 20260506230506 | 59 | 198 | 0.0 | 4.3 | 0.00 | 0.00 | 0.00 | 73 | 1020.6 |
| 20260506230019 | 59 | 270 | 0.0 | 5.2 | 0.00 | 0.00 | 0.00 | 73 | 1020.6 |
| 20260506225507 | 59 | 229 | 0.9 | 5.2 | 0.00 | 0.00 | 0.00 | 72 | 1020.6 |
| 20260506225008 | 59 | 305 | 2.6 | 5.2 | 0.00 | 0.00 | 0.00 | 72 | 1020.6 |
| 20260506224529 | 59 | 303 | 1.7 | 4.3 | 0.00 | 0.00 | 0.00 | 71 | 1020.7 |
| 20260506224009 | 59 | 227 | 0.0 | 6.1 | 0.00 | 0.00 | 0.00 | 72 | 1020.6 |
| 20260506223508 | 59 | 200 | 1.7 | 6.1 | 0.00 | 0.00 | 0.00 | 71 | 1020.6 |
| 20260506223008 | 59 | 121 | 2.6 | 5.2 | 0.00 | 0.00 | 0.00 | 70 | 1020.5 |
| 20260506222504 | 59 | 208 | 1.7 | 6.1 | 0.00 | 0.00 | 0.00 | 71 | 1020.6 |
| 20260506222006 | 59 | 267 | 1.7 | 6.1 | 0.00 | 0.00 | 0.00 | 72 | 1020.7 |
| 20260506221514 | 59 | 182 | 1.7 | 6.1 | 0.00 | 0.00 | 0.00 | 71 | 1020.8 |
| 20260506221003 | 58 | 271 | 1.7 | 7.0 | 0.00 | 0.00 | 0.00 | 73 | 1020.9 |
| 20260506220506 | 58 | 176 | 0.9 | 7.0 | 0.00 | 0.00 | 0.00 | 73 | 1021.0 |
| 20260506220018 | 58 | 168 | 2.6 | 7.0 | 0.00 | 0.00 | 0.00 | 73 | 1021.0 |
| 20260506215504 | 58 | 160 | 2.6 | 6.1 | 0.00 | 0.00 | 0.00 | 73 | 1021.0 |
| 20260506215007 | 59 | 259 | 1.7 | 6.1 | 0.00 | 0.00 | 0.00 | 73 | 1020.9 |
| 20260506214521 | 59 | 197 | 1.7 | 6.1 | 0.00 | 0.00 | 0.00 | 73 | 1020.9 |
| 20260506214008 | 59 | 186 | 1.7 | 7.0 | 0.00 | 0.00 | 0.00 | 73 | 1020.7 |
| 20260506213508 | 59 | 231 | 0.9 | 7.8 | 0.00 | 0.00 | 0.00 | 73 | 1020.7 |
| 20260506213024 | 59 | 210 | 1.7 | 7.8 | 0.00 | 0.00 | 0.00 | 72 | 1020.8 |
| 20260506212510 | 59 | 174 | 0.9 | 7.8 | 0.00 | 0.00 | 0.00 | 72 | 1020.9 |
| 20260506212011 | 60 | 225 | 1.7 | 6.1 | 0.00 | 0.00 | 0.00 | 72 | 1020.9 |
| 20260506211513 | 60 | 202 | 1.7 | 5.2 | 0.00 | 0.00 | 0.00 | 71 | 1021.0 |
| 20260506211005 | 61 | 191 | 1.7 | 6.1 | 0.00 | 0.00 | 0.00 | 71 | 1020.9 |
| 20260506210503 | 61 | 242 | 0.9 | 6.1 | 0.00 | 0.00 | 0.00 | 72 | 1021.0 |
| 20260506210018 | 60 | 243 | 2.6 | 6.1 | 0.00 | 0.00 | 0.00 | 73 | 1020.9 |
| 20260506205506 | 60 | 188 | 1.7 | 5.2 | 0.00 | 0.00 | 0.00 | 73 | 1020.9 |
| 20260506205006 | 60 | 38 | 0.9 | 5.2 | 0.00 | 0.00 | 0.00 | 75 | 1020.8 |
| 20260506204522 | 59 | 302 | 2.6 | 5.2 | 0.00 | 0.00 | 0.00 | 75 | 1020.8 |
| 20260506204011 | 59 | 220 | 1.7 | 5.2 | 0.00 | 0.00 | 0.00 | 76 | 1020.9 |
| 20260506203505 | 58 | 295 | 0.9 | 4.3 | 0.00 | 0.00 | 0.00 | 79 | 1020.7 |
| 20260506203033 | 57 | 308 | 0.9 | 3.5 | 0.00 | 0.00 | 0.00 | 80 | 1020.8 |
| 20260506202509 | 57 | 224 | 1.7 | 3.5 | 0.00 | 0.00 | 0.00 | 80 | 1020.7 |
| 20260506202011 | 57 | 151 | 0.9 | 3.5 | 0.00 | 0.00 | 0.00 | 80 | 1020.8 |
| 20260506201528 | 58 | 126 | 0.9 | 2.6 | 0.00 | 0.00 | 0.00 | 80 | 1020.8 |
| 20260506201007 | 58 | 252 | 0.9 | 2.6 | 0.00 | 0.00 | 0.00 | 80 | 1020.9 |
| 20260506200507 | 57 | 250 | 0.0 | 2.6 | 0.00 | 0.00 | 0.00 | 82 | 1020.8 |
| 20260506200012 | 56 | 297 | 0.0 | 1.7 | 0.00 | 0.00 | 0.00 | 82 | 1020.9 |
| 20260506195503 | 57 | 192 | 0.0 | 3.5 | 0.00 | 0.00 | 0.00 | 82 | 1020.8 |
| 20260506195007 | 57 | 203 | 0.9 | 3.5 | 0.00 | 0.00 | 0.00 | 81 | 1020.9 |
| 20260506194519 | 57 | 255 | 0.0 | 1.7 | 0.00 | 0.00 | 0.00 | 82 | 1020.8 |
| 20260506194008 | 57 | 194 | 0.0 | 6.1 | 0.00 | 0.00 | 0.00 | 82 | 1020.7 |
| 20260506193508 | 56 | 176 | 0.9 | 6.1 | 0.00 | 0.00 | 0.00 | 82 | 1020.7 |
| 20260506193020 | 56 | 267 | 1.7 | 5.2 | 0.00 | 0.00 | 0.00 | 81 | 1020.7 |
| 20260506192507 | 57 | 252 | 0.9 | 4.3 | 0.00 | 0.00 | 0.00 | 82 | 1020.7 |
| 20260506192009 | 56 | 299 | 0.9 | 5.2 | 0.00 | 0.00 | 0.00 | 83 | 1020.7 |
| 20260506191507 | 56 | 79 | 0.9 | 5.2 | 0.00 | 0.00 | 0.00 | 82 | 1020.6 |
| 20260506191002 | 56 | 229 | 1.7 | 4.3 | 0.00 | 0.00 | 0.00 | 82 | 1020.6 |
| 20260506190507 | 57 | 233 | 1.7 | 3.5 | 0.00 | 0.00 | 0.00 | 81 | 1020.5 |
| 20260506190012 | 57 | 249 | 0.0 | 2.6 | 0.00 | 0.00 | 0.00 | 82 | 1020.5 |
| 20260506185504 | 57 | 168 | 0.9 | 3.5 | 0.00 | 0.00 | 0.00 | 82 | 1020.4 |
| 20260506185006 | 56 | 81 | 0.9 | 3.5 | 0.00 | 0.00 | 0.00 | 82 | 1020.5 |
| 20260506184516 | 56 | 169 | 0.9 | 3.5 | 0.00 | 0.00 | 0.00 | 83 | 1020.5 |
| 20260506184008 | 56 | 193 | 0.9 | 4.3 | 0.00 | 0.00 | 0.00 | 84 | 1020.5 |
| 20260506183508 | 56 | 258 | 0.9 | 4.3 | 0.00 | 0.00 | 0.00 | 84 | 1020.4 |
| 20260506183021 | 56 | 181 | 0.0 | 3.5 | 0.00 | 0.00 | 0.00 | 86 | 1020.4 |
| 20260506182507 | 56 | 195 | 0.9 | 3.5 | 0.00 | 0.00 | 0.00 | 86 | 1020.4 |
| 20260506182010 | 56 | 68 | 0.0 | 4.3 | 0.00 | 0.00 | 0.00 | 87 | 1020.3 |
| 20260506181524 | 56 | 59 | 0.9 | 4.3 | 0.00 | 0.00 | 0.00 | 86 | 1020.3 |
| 20260506181008 | 56 | 174 | 0.0 | 3.5 | 0.00 | 0.00 | 0.00 | 85 | 1020.3 |
| 20260506180502 | 56 | 299 | 0.9 | 3.5 | 0.00 | 0.00 | 0.00 | 85 | 1020.4 |
| 20260506180009 | 56 | 166 | 0.9 | 2.6 | 0.00 | 0.00 | 0.00 | 84 | 1020.3 |
| 20260506175503 | 56 | 276 | 0.9 | 4.3 | 0.00 | 0.00 | 0.00 | 84 | 1020.2 |
| 20260506175003 | 56 | 248 | 0.0 | 4.3 | 0.00 | 0.00 | 0.00 | 85 | 1020.3 |
| 20260506174515 | 56 | 286 | 0.9 | 4.3 | 0.00 | 0.00 | 0.00 | 85 | 1020.2 |
| 20260506174004 | 56 | 188 | 0.9 | 4.3 | 0.00 | 0.00 | 0.00 | 86 | 1020.2 |
| 20260506173504 | 55 | 284 | 0.9 | 2.6 | 0.00 | 0.00 | 0.00 | 88 | 1020.0 |
| 20260506173019 | 55 | 258 | 0.0 | 1.7 | 0.00 | 0.00 | 0.00 | 88 | 1019.9 |
| 20260506172503 | 55 | 295 | 0.0 | 2.6 | 0.00 | 0.00 | 0.00 | 88 | 1019.9 |
| 20260506172007 | 55 | 238 | 0.0 | 2.6 | 0.00 | 0.00 | 0.00 | 88 | 1020.1 |
| 20260506171524 | 55 | 1 | 0.0 | 1.7 | 0.00 | 0.00 | 0.00 | 88 | 1020.1 |
| 20260506171007 | 55 | 208 | 0.0 | 1.7 | 0.00 | 0.00 | 0.00 | 88 | 1020.2 |
| 20260506170508 | 55 | 256 | 0.0 | 1.7 | 0.00 | 0.00 | 0.00 | 87 | 1020.2 |
| 20260506170024 | 55 | 259 | 0.0 | 2.6 | 0.00 | 0.00 | 0.00 | 86 | 1020.1 |
| 20260506165510 | 55 | 240 | 0.9 | 3.5 | 0.00 | 0.00 | 0.00 | 86 | 1020.0 |
| 20260506165005 | 55 | 169 | 0.0 | 3.5 | 0.00 | 0.00 | 0.00 | 86 | 1020.0 |
| 20260506164514 | 55 | 113 | 0.0 | 2.6 | 0.00 | 0.00 | 0.00 | 86 | 1020.1 |
| 20260506164003 | 55 | 214 | 0.0 | 2.6 | 0.00 | 0.00 | 0.00 | 86 | 1020.2 |
| 20260506163504 | 55 | 198 | 0.9 | 2.6 | 0.00 | 0.00 | 0.00 | 87 | 1020.2 |
| 20260506163029 | 55 | 181 | 0.0 | 1.7 | 0.00 | 0.00 | 0.00 | 87 | 1020.2 |
| 20260506162505 | 55 | 196 | 0.0 | 1.7 | 0.00 | 0.00 | 0.00 | 88 | 1020.1 |
| 20260506162010 | 54 | 212 | 0.9 | 1.7 | 0.00 | 0.00 | 0.00 | 88 | 1020.0 |
| 20260506161523 | 54 | 307 | 0.0 | 1.7 | 0.00 | 0.00 | 0.00 | 88 | 1019.9 |
| 20260506161007 | 54 | 229 | 0.0 | 2.6 | 0.00 | 0.00 | 0.00 | 89 | 1019.9 |
| 20260506160507 | 54 | 161 | 0.9 | 2.6 | 0.00 | 0.00 | 0.00 | 89 | 1019.9 |
| 20260506160023 | 54 | 169 | 0.0 | 2.6 | 0.00 | 0.00 | 0.00 | 90 | 1019.9 |
| 20260506155507 | 54 | 66 | 0.0 | 2.6 | 0.00 | 0.00 | 0.00 | 90 | 1019.9 |
| 20260506155009 | 54 | 217 | 0.9 | 2.6 | 0.00 | 0.00 | 0.00 | 90 | 1019.8 |
| 20260506154535 | 54 | 181 | 0.0 | 2.6 | 0.00 | 0.00 | 0.00 | 90 | 1019.8 |
| 20260506154007 | 53 | 160 | 0.9 | 2.6 | 0.00 | 0.00 | 0.00 | 90 | 1019.7 |
| 20260506153503 | 53 | 171 | 0.9 | 2.6 | 0.00 | 0.00 | 0.00 | 90 | 1019.7 |
| 20260506153011 | 53 | 121 | 0.9 | 2.6 | 0.00 | 0.00 | 0.00 | 91 | 1019.7 |
| 20260506152503 | 53 | 148 | 0.0 | 2.6 | 0.00 | 0.00 | 0.00 | 91 | 1019.7 |
| 20260506152011 | 53 | 191 | 0.0 | 2.6 | 0.00 | 0.00 | 0.00 | 91 | 1019.8 |
| 20260506151517 | 53 | 205 | 0.9 | 2.6 | 0.00 | 0.00 | 0.00 | 90 | 1019.8 |
| 20260506151008 | 53 | 172 | 0.0 | 1.7 | 0.00 | 0.00 | 0.00 | 90 | 1019.9 |
| 20260506150509 | 53 | 186 | 0.0 | 0.0 | 0.00 | 0.00 | 0.00 | 90 | 1019.9 |
| 20260506150024 | 53 | 214 | 0.0 | 0.0 | 0.00 | 0.00 | 0.00 | 90 | 1020.1 |
| 20260506145508 | 54 | 117 | 0.0 | 0.9 | 0.00 | 0.00 | 0.00 | 90 | 1020.1 |
| 20260506145007 | 54 | 118 | 0.0 | 1.7 | 0.00 | 0.00 | 0.00 | 90 | 1019.8 |
| 20260506144526 | 53 | 167 | 0.9 | 1.7 | 0.00 | 0.00 | 0.00 | 89 | 1019.7 |
| 20260506144010 | 53 | 200 | 0.0 | 1.7 | 0.00 | 0.00 | 0.00 | 90 | 1019.6 |
| 20260506143510 | 53 | 176 | 0.0 | 1.7 | 0.00 | 0.00 | 0.00 | 90 | 1019.6 |
| 20260506143027 | 53 | 143 | 0.0 | 0.0 | 0.00 | 0.00 | 0.00 | 90 | 1019.6 |
| 20260506142510 | 53 | 179 | 0.0 | 0.0 | 0.00 | 0.00 | 0.00 | 90 | 1019.7 |
| 20260506142004 | 53 | 208 | 0.0 | 0.0 | 0.00 | 0.00 | 0.00 | 90 | 1019.6 |
| 20260506141514 | 53 | 163 | 0.0 | 0.0 | 0.00 | 0.00 | 0.00 | 90 | 1019.6 |
| 20260506141007 | 53 | 194 | 0.0 | 0.0 | 0.00 | 0.00 | 0.00 | 90 | 1019.6 |
| 20260506140508 | 53 | 243 | 0.0 | 0.0 | 0.00 | 0.00 | 0.00 | 91 | 1019.5 |
| 20260506140029 | 53 | 155 | 0.0 | 0.0 | 0.00 | 0.00 | 0.00 | 91 | 1019.5 |
| 20260506135509 | 53 | 167 | 0.0 | 0.0 | 0.00 | 0.00 | 0.00 | 91 | 1019.4 |
| 20260506135006 | 53 | 310 | 0.0 | 0.0 | 0.00 | 0.00 | 0.00 | 91 | 1019.4 |
| 20260506134524 | 53 | 310 | 0.0 | 0.0 | 0.00 | 0.00 | 0.00 | 91 | 1019.5 |
| 20260506134016 | 53 | 310 | 0.0 | 0.0 | 0.00 | 0.00 | 0.00 | 91 | 1019.5 |
| 20260506133508 | 53 | 310 | 0.0 | 0.0 | 0.00 | 0.00 | 0.00 | 91 | 1019.5 |
| 20260506133025 | 52 | 310 | 0.0 | 0.0 | 0.00 | 0.00 | 0.00 | 92 | 1019.5 |
| 20260506132513 | 52 | 310 | 0.0 | 0.0 | 0.00 | 0.00 | 0.00 | 92 | 1019.5 |
| 20260506132010 | 52 | 276 | 0.0 | 0.0 | 0.00 | 0.00 | 0.00 | 92 | 1019.3 |
| 20260506131531 | 52 | 276 | 0.0 | 0.0 | 0.00 | 0.00 | 0.00 | 92 | 1019.4 |
| 20260506131012 | 52 | 276 | 0.0 | 0.0 | 0.00 | 0.00 | 0.00 | 92 | 1019.4 |
| 20260506130509 | 52 | 276 | 0.0 | 0.0 | 0.00 | 0.00 | 0.00 | 92 | 1019.3 |
| 20260506130020 | 52 | 276 | 0.0 | 0.0 | 0.00 | 0.00 | 0.00 | 92 | 1019.2 |
| 20260506125506 | 52 | 275 | 0.0 | 0.0 | 0.00 | 0.00 | 0.00 | 92 | 1019.0 |
| 20260506125007 | 52 | 276 | 0.0 | 0.0 | 0.00 | 0.00 | 0.00 | 93 | 1018.9 |
| 20260506124520 | 52 | 276 | 0.0 | 0.0 | 0.00 | 0.00 | 0.00 | 93 | 1019.0 |
| 20260506124009 | 52 | 276 | 0.0 | 0.0 | 0.00 | 0.00 | 0.00 | 93 | 1018.8 |
| 20260506123510 | 52 | 275 | 0.0 | 0.0 | 0.00 | 0.00 | 0.00 | 93 | 1018.8 |
| 20260506123024 | 52 | 276 | 0.0 | 0.0 | 0.00 | 0.00 | 0.00 | 93 | 1018.8 |
| 20260506122509 | 52 | 276 | 0.0 | 0.0 | 0.00 | 0.00 | 0.00 | 93 | 1018.9 |
| 20260506122010 | 52 | 276 | 0.0 | 0.0 | 0.00 | 0.00 | 0.00 | 93 | 1018.9 |
| 20260506121527 | 52 | 276 | 0.0 | 0.0 | 0.00 | 0.00 | 0.00 | 93 | 1018.9 |
| 20260506121009 | 52 | 275 | 0.0 | 0.0 | 0.00 | 0.00 | 0.00 | 93 | 1019.1 |
| 20260506120507 | 52 | 276 | 0.0 | 0.0 | 0.00 | 0.00 | 0.00 | 93 | 1019.1 |
| 20260506120028 | 52 | 275 | 0.0 | 0.0 | 0.00 | 0.00 | 0.00 | 93 | 1018.9 |
| 20260506115510 | 52 | 276 | 0.0 | 0.0 | 0.00 | 0.00 | 0.00 | 93 | 1018.8 |
| 20260506115008 | 52 | 276 | 0.0 | 0.0 | 0.00 | 0.00 | 0.00 | 93 | 1018.7 |
| 20260506114524 | 52 | 276 | 0.0 | 0.0 | 0.00 | 0.00 | 0.00 | 93 | 1018.7 |
| 20260506114007 | 52 | 275 | 0.0 | 0.0 | 0.00 | 0.00 | 0.00 | 93 | 1018.7 |
| 20260506113506 | 52 | 276 | 0.0 | 0.0 | 0.00 | 0.00 | 0.00 | 93 | 1018.7 |
| 20260506113022 | 52 | 276 | 0.0 | 0.0 | 0.00 | 0.00 | 0.00 | 93 | 1018.6 |
| 20260506112509 | 52 | 232 | 0.0 | 0.0 | 0.00 | 0.00 | 0.00 | 93 | 1018.6 |
| 20260506112009 | 52 | 238 | 0.0 | 1.7 | 0.00 | 0.00 | 0.00 | 93 | 1018.5 |
| 20260506111530 | 52 | 212 | 0.0 | 1.7 | 0.00 | 0.00 | 0.00 | 93 | 1018.4 |
| 20260506111009 | 52 | 160 | 0.0 | 1.7 | 0.00 | 0.00 | 0.00 | 93 | 1018.3 |
| 20260506110503 | 52 | 148 | 0.0 | 1.7 | 0.00 | 0.00 | 0.00 | 93 | 1018.2 |
| 20260506110013 | 52 | 126 | 0.0 | 1.7 | 0.00 | 0.00 | 0.00 | 93 | 1018.2 |
| 20260506105505 | 51 | 199 | 0.0 | 0.0 | 0.00 | 0.00 | 0.00 | 93 | 1018.1 |
| 20260506105008 | 51 | 199 | 0.0 | 1.7 | 0.00 | 0.00 | 0.00 | 93 | 1018.1 |
| 20260506104517 | 51 | 199 | 0.0 | 1.7 | 0.00 | 0.00 | 0.00 | 93 | 1018.1 |
| 20260506104007 | 51 | 199 | 0.0 | 1.7 | 0.00 | 0.00 | 0.00 | 93 | 1017.9 |
| 20260506103507 | 51 | 199 | 0.0 | 1.7 | 0.00 | 0.00 | 0.00 | 93 | 1017.9 |
| 20260506103025 | 51 | 203 | 0.0 | 1.7 | 0.00 | 0.00 | 0.00 | 93 | 1017.9 |
| 20260506102507 | 51 | 203 | 0.0 | 1.7 | 0.00 | 0.00 | 0.00 | 93 | 1017.9 |
| 20260506102006 | 51 | 203 | 0.0 | 0.0 | 0.00 | 0.00 | 0.00 | 93 | 1017.9 |
| 20260506101524 | 51 | 161 | 0.0 | 0.0 | 0.00 | 0.00 | 0.00 | 93 | 1017.9 |
| 20260506101010 | 51 | 161 | 0.0 | 0.0 | 0.00 | 0.00 | 0.00 | 93 | 1017.9 |
| 20260506100507 | 51 | 161 | 0.0 | 0.0 | 0.00 | 0.00 | 0.00 | 94 | 1017.7 |
| 20260506100030 | 51 | 161 | 0.0 | 0.0 | 0.00 | 0.00 | 0.00 | 93 | 1017.7 |
| 20260506095511 | 50 | 161 | 0.0 | 0.0 | 0.00 | 0.00 | 0.00 | 94 | 1017.7 |
| 20260506095009 | 50 | 161 | 0.0 | 0.0 | 0.00 | 0.00 | 0.00 | 93 | 1017.7 |
| 20260506094517 | 50 | 161 | 0.0 | 0.0 | 0.00 | 0.00 | 0.00 | 93 | 1017.7 |
| 20260506094008 | 50 | 161 | 0.0 | 0.0 | 0.00 | 0.00 | 0.00 | 93 | 1017.6 |
| 20260506093507 | 50 | 165 | 0.0 | 0.0 | 0.00 | 0.00 | 0.00 | 93 | 1017.6 |
| 20260506093021 | 50 | 165 | 0.0 | 0.0 | 0.00 | 0.00 | 0.00 | 93 | 1017.6 |
| 20260506092507 | 50 | 165 | 0.0 | 0.0 | 0.00 | 0.00 | 0.00 | 93 | 1017.6 |
| 20260506092007 | 50 | 165 | 0.0 | 0.0 | 0.00 | 0.00 | 0.00 | 93 | 1017.6 |
| 20260506091526 | 50 | 165 | 0.0 | 0.0 | 0.00 | 0.00 | 0.00 | 93 | 1017.6 |
| 20260506091010 | 50 | 165 | 0.0 | 0.0 | 0.00 | 0.00 | 0.00 | 93 | 1017.6 |
| 20260506090507 | 50 | 165 | 0.0 | 0.0 | 0.00 | 0.00 | 0.00 | 93 | 1017.6 |
| 20260506090025 | 50 | 165 | 0.0 | 0.0 | 0.00 | 0.00 | 0.00 | 93 | 1017.6 |
| 20260506085510 | 51 | 165 | 0.0 | 0.0 | 0.00 | 0.00 | 0.00 | 93 | 1017.5 |
| 20260506085009 | 51 | 165 | 0.0 | 0.0 | 0.00 | 0.00 | 0.00 | 93 | 1017.5 |
| 20260506084535 | 51 | 165 | 0.0 | 0.0 | 0.00 | 0.00 | 0.00 | 92 | 1017.4 |
| 20260506084010 | 51 | 165 | 0.0 | 0.0 | 0.00 | 0.00 | 0.00 | 92 | 1017.4 |
| 20260506083506 | 51 | 165 | 0.0 | 0.0 | 0.00 | 0.00 | 0.00 | 92 | 1017.3 |
| 20260506083024 | 51 | 165 | 0.0 | 0.0 | 0.00 | 0.00 | 0.00 | 92 | 1017.3 |
| 20260506082506 | 51 | 165 | 0.0 | 0.0 | 0.00 | 0.00 | 0.00 | 92 | 1017.3 |
| 20260506082006 | 52 | 165 | 0.0 | 0.0 | 0.00 | 0.00 | 0.00 | 92 | 1017.3 |
| 20260506081503 | 52 | 165 | 0.0 | 0.0 | 0.00 | 0.00 | 0.00 | 92 | 1017.2 |
| 20260506081004 | 52 | 165 | 0.0 | 0.0 | 0.00 | 0.00 | 0.00 | 92 | 1017.2 |
| 20260506080503 | 52 | 165 | 0.0 | 0.0 | 0.00 | 0.00 | 0.00 | 92 | 1017.1 |
| 20260506073509 | 52 | 165 | 0.0 | 0.9 | 0.00 | 0.00 | 0.00 | 91 | 1016.8 |
| 20260506073015 | 52 | 165 | 0.0 | 0.9 | 0.00 | 0.00 | 0.00 | 90 | 1016.8 |
| 20260506072507 | 53 | 165 | 0.0 | 1.7 | 0.00 | 0.00 | 0.00 | 91 | 1016.8 |
| 20260506072008 | 52 | 165 | 0.0 | 1.7 | 0.00 | 0.00 | 0.00 | 91 | 1016.8 |
| 20260506071520 | 52 | 165 | 0.0 | 1.7 | 0.00 | 0.00 | 0.00 | 90 | 1016.8 |
| 20260506071009 | 53 | 202 | 0.0 | 0.0 | 0.00 | 0.00 | 0.00 | 90 | 1016.8 |
| 20260506070507 | 53 | 202 | 0.0 | 0.0 | 0.00 | 0.00 | 0.00 | 89 | 1016.7 |